IQ1GE Weather Reports


Display with metric or nautical units.
time (UTC)temp
F
wind
direction
speed
MPH
gust
MPH
rain 1hr
in
rain 24hr
in
rain mn
in
humidity
%
barometer
mb
20260507180436 65 359 0.0 0.0 0.00 0.00 0.00 77 1015.6
20260507175930 65 359 0.0 0.0 0.00 0.00 0.00 77 1015.5
20260507175433 65 359 0.0 0.0 0.00 0.00 0.00 77 1015.6
20260507174933 66 359 0.0 0.0 0.00 0.00 0.00 76 1015.5
20260507174433 66 359 0.0 0.0 0.00 0.00 0.00 75 1015.5
20260507173930 66 359 0.0 0.0 0.00 0.00 0.00 75 1015.5
20260507173433 66 359 0.0 0.0 0.00 0.00 0.00 75 1015.5
20260507172936 66 359 0.0 0.0 0.00 0.00 0.00 75 1015.5
20260507172431 67 359 0.0 0.0 0.00 0.00 0.00 74 1015.7
20260507171937 67 214 0.0 0.0 0.00 0.00 0.00 74 1015.6
20260507171434 67 183 0.0 0.0 0.00 0.00 0.00 73 1015.5
20260507170937 67 212 0.0 0.0 0.00 0.00 0.00 73 1015.5
20260507170440 67 214 0.0 0.0 0.00 0.00 0.00 73 1015.4
20260507165934 67 210 0.0 0.0 0.00 0.00 0.00 74 1015.3
20260507165431 67 218 0.0 0.0 0.00 0.00 0.00 73 1015.3
20260507164931 67 216 0.0 0.0 0.00 0.00 0.00 72 1015.3
20260507164431 67 176 0.0 0.0 0.00 0.00 0.00 72 1015.3
20260507163934 67 183 0.0 0.0 0.00 0.00 0.00 72 1015.4
20260507163431 67 258 0.0 0.0 0.00 0.00 0.00 71 1015.4
20260507162931 67 221 0.0 0.0 0.00 0.00 0.00 72 1015.4
20260507162434 67 146 0.0 0.0 0.00 0.00 0.00 73 1015.3
20260507161934 67 183 0.0 0.0 0.00 0.00 0.00 73 1015.4
20260507161434 67 308 0.0 0.0 0.00 0.00 0.00 73 1015.3
20260507160931 67 183 0.0 0.0 0.00 0.00 0.00 72 1015.4
20260507160431 68 319 0.0 0.0 0.00 0.00 0.00 72 1015.3
20260507155934 68 177 0.0 0.0 0.00 0.00 0.00 71 1015.4
20260507155437 68 193 0.0 0.0 0.00 0.00 0.00 71 1015.3
20260507154931 68 277 0.0 0.0 0.00 0.00 0.00 72 1015.4
20260507154434 68 139 0.0 0.0 0.00 0.00 0.00 72 1015.5
20260507153931 68 164 0.0 0.0 0.00 0.00 0.00 72 1015.5
20260507153431 67 258 0.0 0.0 0.00 0.00 0.00 71 1015.4
20260507152931 67 359 0.0 0.0 0.00 0.00 0.00 74 1015.3
20260507152431 67 220 0.0 0.0 0.00 0.00 0.00 73 1015.4
20260507151937 67 241 0.0 0.0 0.00 0.00 0.00 72 1015.5
20260507151431 68 232 0.0 0.0 0.00 0.00 0.00 71 1015.5
20260507150937 68 135 0.0 0.0 0.00 0.00 0.00 72 1015.5
20260507150431 68 285 0.0 0.0 0.00 0.00 0.00 72 1015.4
20260507145931 68 183 0.0 0.0 0.00 0.00 0.00 71 1015.4
20260507145431 68 221 0.0 0.0 0.00 0.00 0.00 70 1015.4
20260507144931 68 231 0.0 0.0 0.00 0.00 0.00 70 1015.4
20260507144431 69 116 0.0 0.0 0.00 0.00 0.00 70 1015.5
20260507143931 69 143 0.0 0.0 0.00 0.00 0.00 70 1015.5
20260507143437 69 166 0.0 0.0 0.00 0.00 0.00 70 1015.5
20260507142931 69 173 0.0 0.0 0.00 0.00 0.00 69 1015.6
20260507142437 68 148 0.0 0.0 0.00 0.00 0.00 71 1015.6
20260507141931 68 130 0.0 0.0 0.00 0.00 0.00 71 1015.6
20260507141431 68 198 0.0 0.0 0.00 0.00 0.00 71 1015.7
20260507140931 68 210 0.0 0.0 0.00 0.00 0.00 73 1015.7
20260507140431 67 40 0.0 0.0 0.00 0.00 0.00 73 1015.7
20260507135934 68 184 0.0 0.0 0.00 0.00 0.00 71 1015.7
20260507135434 68 199 0.0 0.0 0.00 0.00 0.00 72 1015.8
20260507134931 68 183 0.0 0.0 0.00 0.00 0.00 73 1015.7
20260507134431 68 180 0.0 0.0 0.00 0.00 0.00 72 1015.8
20260507133931 68 144 0.0 0.0 0.00 0.00 0.00 71 1015.8
20260507133431 68 240 0.0 0.0 0.00 0.00 0.00 72 1015.7
20260507132934 68 183 0.0 0.0 0.00 0.00 0.00 72 1015.6
20260507132431 68 231 0.0 0.0 0.00 0.00 0.00 71 1015.7
20260507131934 68 220 0.0 0.0 0.00 0.00 0.00 70 1015.7
20260507131434 68 162 0.0 0.0 0.00 0.00 0.00 72 1015.7
20260507130931 68 206 0.0 0.0 0.00 0.00 0.00 73 1015.7
20260507130431 68 359 0.0 0.0 0.00 0.00 0.00 72 1015.7
20260507125934 68 212 0.0 0.0 0.00 0.00 0.00 72 1015.6
20260507125440 68 185 0.0 0.0 0.00 0.00 0.00 73 1015.7
20260507124931 68 126 0.0 0.0 0.00 0.00 0.00 73 1015.6
20260507124434 68 226 0.0 0.0 0.00 0.00 0.00 72 1015.6
20260507123931 68 207 0.0 0.0 0.00 0.00 0.00 71 1015.5
20260507123431 68 235 0.0 0.0 0.00 0.00 0.00 71 1015.6
20260507122931 68 164 0.0 0.0 0.00 0.00 0.00 73 1015.5
20260507122434 68 161 0.0 0.0 0.00 0.00 0.00 73 1015.5
20260507121931 68 359 0.0 0.0 0.00 0.00 0.00 72 1015.5
20260507121437 68 197 0.0 0.0 0.00 0.00 0.00 73 1015.5
20260507120937 67 199 0.0 0.0 0.00 0.00 0.00 74 1015.5
20260507120431 67 226 0.0 0.0 0.00 0.00 0.00 74 1015.5
20260507115931 67 262 0.0 0.0 0.00 0.00 0.00 74 1015.5
20260507115434 67 233 0.0 0.0 0.00 0.00 0.00 74 1015.5
20260507114937 67 359 0.0 0.0 0.00 0.00 0.00 73 1015.6
20260507114431 67 196 0.0 0.0 0.00 0.00 0.00 72 1015.7
20260507113934 67 359 0.0 0.0 0.00 0.00 0.00 71 1015.8
20260507113434 67 195 0.0 0.0 0.00 0.00 0.00 70 1015.8
20260507112931 68 223 0.0 0.0 0.00 0.00 0.00 70 1015.8
20260507112431 67 195 0.0 0.0 0.00 0.00 0.00 71 1015.9
20260507111934 68 359 0.0 0.0 0.00 0.00 0.00 70 1015.9
20260507111440 68 139 0.0 0.0 0.00 0.00 0.00 71 1015.9
20260507110931 67 149 0.0 0.0 0.00 0.00 0.00 72 1015.8
20260507110431 67 172 0.0 0.0 0.00 0.00 0.00 73 1015.8
20260507105934 67 359 0.0 0.0 0.00 0.00 0.00 73 1015.7
20260507105434 67 168 0.0 0.0 0.00 0.00 0.00 73 1015.7
20260507104931 67 287 0.0 0.0 0.00 0.00 0.00 74 1015.7
20260507104434 67 247 0.0 0.0 0.00 0.00 0.00 73 1015.7
20260507103934 67 199 0.0 0.0 0.00 0.00 0.00 73 1015.8
20260507103437 67 330 0.0 0.0 0.00 0.00 0.00 73 1015.8
20260507102937 66 218 0.0 0.0 0.00 0.00 0.00 74 1015.8
20260507102431 66 181 0.0 0.0 0.00 0.00 0.00 75 1015.7
20260507101931 66 359 0.0 0.0 0.00 0.00 0.00 77 1015.7
20260507101431 66 246 0.0 0.0 0.00 0.00 0.00 77 1015.8
20260507100931 66 246 0.0 0.0 0.00 0.00 0.00 76 1015.7
20260507100431 66 289 0.0 0.0 0.00 0.00 0.00 75 1015.8
20260507095931 67 184 0.0 0.0 0.00 0.00 0.00 75 1015.6
20260507095434 67 231 0.0 0.0 0.00 0.00 0.00 74 1015.8
20260507094931 68 274 0.0 0.0 0.00 0.00 0.00 72 1015.8
20260507094434 68 241 0.0 0.0 0.00 0.00 0.00 73 1015.7
20260507093931 68 346 0.0 0.0 0.00 0.00 0.00 75 1015.7
20260507093431 67 281 0.0 0.0 0.00 0.00 0.00 75 1015.7
20260507092931 67 158 0.0 0.0 0.00 0.00 0.00 73 1015.7
20260507092434 67 301 0.0 0.0 0.00 0.00 0.00 73 1015.7
20260507091931 67 284 0.0 0.0 0.00 0.00 0.00 73 1015.6
20260507091437 67 200 0.0 0.0 0.00 0.00 0.00 73 1015.7
20260507090931 67 295 0.0 0.0 0.00 0.00 0.00 73 1015.6
20260507090431 67 229 0.0 0.0 0.00 0.00 0.00 73 1015.6
20260507085934 67 216 0.0 0.0 0.00 0.00 0.00 74 1015.6
20260507085434 66 300 0.0 0.0 0.00 0.00 0.00 74 1015.6
20260507084931 66 359 0.0 0.0 0.00 0.00 0.00 74 1015.5
20260507084431 66 242 0.0 0.0 0.00 0.00 0.00 74 1015.5
20260507083931 66 215 0.0 0.0 0.00 0.00 0.00 75 1015.3
20260507083434 65 359 0.0 0.0 0.00 0.00 0.00 76 1015.2
20260507082934 65 359 0.0 0.0 0.00 0.00 0.00 76 1015.2
20260507082431 65 359 0.0 0.0 0.00 0.00 0.00 75 1015.2
20260507081931 65 359 0.0 0.0 0.00 0.00 0.00 76 1015.2
20260507081431 65 359 0.0 0.0 0.00 0.00 0.00 76 1015.1
20260507080937 65 359 0.0 0.0 0.00 0.00 0.00 76 1015.0
20260507080434 65 216 0.0 0.0 0.00 0.00 0.00 75 1015.0
20260507075931 65 359 0.0 0.0 0.00 0.00 0.00 75 1015.1
20260507075434 65 273 0.0 0.0 0.00 0.00 0.00 74 1014.9
20260507074934 65 238 0.0 0.0 0.00 0.00 0.00 74 1014.7
20260507074437 64 230 0.0 0.0 0.00 0.00 0.00 74 1014.6
20260507073934 64 305 0.0 0.0 0.00 0.00 0.00 74 1014.6
20260507073431 64 83 0.0 0.0 0.00 0.00 0.00 74 1014.6
20260507072937 64 298 0.0 0.0 0.00 0.00 0.00 73 1014.5
20260507072431 64 8 0.0 0.0 0.00 0.00 0.00 73 1014.6
20260507071931 65 136 0.0 0.0 0.00 0.00 0.00 73 1014.7
20260507071432 65 246 0.0 0.0 0.00 0.00 0.00 73 1014.7
20260507070931 65 187 0.0 0.0 0.00 0.00 0.00 73 1014.6
20260507070431 64 359 0.0 0.0 0.00 0.00 0.00 74 1014.5
20260507065931 64 348 0.0 0.0 0.00 0.00 0.00 74 1014.4
20260507065434 64 326 0.0 0.0 0.00 0.01 0.00 75 1014.4
20260507064940 64 69 0.0 0.0 0.00 0.06 0.00 75 1014.4
20260507064431 64 338 0.0 0.0 0.00 0.14 0.00 75 1014.5
20260507063934 63 359 0.0 0.0 0.00 0.18 0.00 75 1014.4
20260507063431 63 359 0.0 0.0 0.00 0.18 0.00 76 1014.3
20260507062935 63 359 0.0 0.0 0.00 0.18 0.00 76 1014.3
20260507062432 63 359 0.0 0.0 0.00 0.18 0.00 77 1014.4
20260507061941 63 350 0.0 0.0 0.00 0.18 0.00 77 1014.4
20260507061432 63 276 0.0 0.0 0.00 0.18 0.00 78 1014.3
20260507060935 63 92 0.0 0.0 0.00 0.18 0.00 79 1014.3
20260507060435 62 359 0.0 0.0 0.00 0.18 0.00 79 1014.2
20260507055931 62 359 0.0 0.0 0.00 0.18 0.00 79 1014.1
20260507055435 62 359 0.0 0.0 0.00 0.18 0.00 79 1014.2
20260507054935 62 359 0.0 0.0 0.00 0.18 0.00 79 1014.2
20260507054432 62 359 0.0 0.0 0.00 0.18 0.00 79 1014.2
20260507053935 62 359 0.0 0.0 0.00 0.18 0.00 79 1014.2
20260507053432 62 359 0.0 0.0 0.00 0.18 0.00 79 1014.2
20260507052938 62 359 0.0 0.0 0.00 0.18 0.00 80 1014.2
20260507052432 62 359 0.0 0.0 0.00 0.18 0.00 80 1014.1
20260507051935 62 359 0.0 0.0 0.00 0.18 0.00 80 1014.1
20260507051432 62 359 0.0 0.0 0.00 0.18 0.00 81 1014.1
20260507050938 62 359 0.0 0.0 0.00 0.18 0.00 81 1013.9
20260507050435 62 359 0.0 0.0 0.00 0.18 0.00 81 1013.8
20260507045938 62 359 0.0 0.0 0.00 0.18 0.00 81 1013.7
20260507045432 62 359 0.0 0.0 0.00 0.18 0.00 81 1013.7
20260507044935 62 359 0.0 0.0 0.00 0.18 0.00 81 1013.7
20260507044435 62 359 0.0 0.0 0.00 0.18 0.00 81 1013.6
20260507043935 62 359 0.0 0.0 0.00 0.18 0.00 81 1013.6
20260507043435 62 359 0.0 0.0 0.00 0.18 0.00 81 1013.6
20260507042932 62 359 0.0 0.0 0.00 0.18 0.00 81 1013.6
20260507042435 62 359 0.0 0.0 0.00 0.18 0.00 81 1013.5
20260507041935 62 359 0.0 0.0 0.00 0.18 0.00 81 1013.5
20260507041435 62 359 0.0 0.0 0.00 0.19 0.00 81 1013.5
20260507040935 62 359 0.0 0.0 0.00 0.20 0.00 81 1013.5
20260507040435 62 359 0.0 0.0 0.00 0.20 0.00 81 1013.5
20260507035938 62 359 0.0 0.0 0.00 0.20 0.00 81 1013.5
20260507035435 62 359 0.0 0.0 0.00 0.20 0.00 80 1013.5
20260507034932 62 359 0.0 0.0 0.00 0.20 0.00 81 1013.4
20260507034432 62 359 0.0 0.0 0.00 0.20 0.00 81 1013.5
20260507033932 62 359 0.0 0.0 0.00 0.20 0.00 80 1013.5
20260507033438 62 359 0.0 0.0 0.00 0.20 0.00 80 1013.5
20260507032932 62 359 0.0 0.0 0.00 0.20 0.00 80 1013.4
20260507032438 62 359 0.0 0.0 0.00 0.20 0.00 81 1013.3
20260507031938 62 359 0.0 0.0 0.00 0.20 0.00 81 1013.4
20260507031432 62 359 0.0 0.0 0.00 0.20 0.00 80 1013.4
20260507030935 62 359 0.0 0.0 0.00 0.20 0.00 81 1013.4
20260507030432 62 359 0.0 0.0 0.00 0.20 0.00 81 1013.4
20260507025938 62 359 0.0 0.0 0.00 0.20 0.00 80 1013.4
20260507025435 62 359 0.0 0.0 0.00 0.20 0.00 80 1013.4
20260507024935 62 359 0.0 0.0 0.00 0.20 0.00 80 1013.3
20260507024432 62 359 0.0 0.0 0.00 0.21 0.00 80 1013.3
20260507023932 62 359 0.0 0.0 0.00 0.22 0.00 80 1013.4
20260507023438 63 359 0.0 0.0 0.00 0.23 0.00 80 1013.3
20260507022935 63 359 0.0 0.0 0.00 0.24 0.00 80 1013.4
20260507022432 63 359 0.0 0.0 0.00 0.25 0.00 80 1013.4
20260507021932 63 359 0.0 0.0 0.00 0.25 0.00 80 1013.4
20260507021438 63 359 0.0 0.0 0.00 0.25 0.00 80 1013.3
20260507020932 63 359 0.0 0.0 0.00 0.26 0.00 80 1013.3
20260507020432 63 359 0.0 0.0 0.00 0.31 0.00 80 1013.3
20260507015929 63 359 0.0 0.0 0.00 0.41 0.00 80 1013.3
20260507015435 63 359 0.0 0.0 0.00 0.49 0.00 79 1013.4
20260507014929 63 359 0.0 0.0 0.00 0.55 0.00 79 1013.3
20260507014432 63 359 0.0 0.0 0.00 0.57 0.00 79 1013.2
20260507013929 63 359 0.0 0.0 0.00 0.62 0.00 79 1013.3
20260507013429 63 359 0.0 0.0 0.00 0.74 0.00 79 1013.3
20260507012929 63 359 0.0 0.0 0.00 0.84 0.00 78 1013.3
20260507012429 63 359 0.0 0.0 0.00 1.07 0.00 78 1013.4
20260507011929 63 359 0.0 0.0 0.00 1.12 0.00 78 1013.5
20260507011429 63 359 0.0 0.0 0.00 1.17 0.00 78 1013.5
20260507010929 63 359 0.0 0.0 0.00 1.20 0.00 78 1013.5
20260507010432 63 359 0.0 0.0 0.00 1.22 0.00 78 1013.6
20260507005929 63 359 0.0 0.0 0.00 1.22 0.00 79 1013.6
20260507005429 63 359 0.0 0.0 0.00 1.25 0.00 79 1013.6
20260507004932 63 359 0.0 0.0 0.00 1.25 0.00 79 1013.7
20260507004429 63 359 0.0 0.0 0.00 1.27 0.00 79 1013.6
20260507003932 63 359 0.0 0.0 0.00 1.27 0.00 79 1013.6
20260507003435 63 359 0.0 0.0 0.00 1.32 0.00 79 1013.6
20260507002929 63 359 0.0 0.0 0.00 1.33 0.00 79 1013.5
20260507002432 63 359 0.0 0.0 0.00 1.36 0.00 78 1013.5
20260507001935 63 359 0.0 0.0 0.00 1.40 0.00 78 1013.5
20260507001429 63 359 0.0 0.0 0.00 1.40 0.00 78 1013.4
20260507000929 63 359 0.0 0.0 0.00 1.40 0.00 78 1013.4
20260507000435 63 359 0.0 0.0 0.00 1.40 0.00 77 1013.4
20260506235929 63 359 0.0 0.0 0.00 1.40 0.00 77 1013.5
20260506235438 63 359 0.0 0.0 0.00 1.40 0.00 77 1013.6
20260506234932 63 359 0.0 0.0 0.00 1.40 0.00 77 1013.6
20260506234429 63 359 0.0 0.0 0.00 1.40 0.00 77 1013.6
20260506233932 63 359 0.0 0.0 0.00 1.40 0.00 76 1013.6
20260506233429 63 359 0.0 0.0 0.00 1.40 0.00 76 1013.6
20260506232932 64 359 0.0 0.0 0.00 1.40 0.00 75 1013.6
20260506232429 64 359 0.0 0.0 0.00 1.40 0.00 75 1013.6
20260506231929 64 359 0.0 0.0 0.00 1.40 0.00 75 1013.6
20260506231432 64 359 0.0 0.0 0.00 1.40 0.00 75 1013.6
20260506230933 64 359 0.0 0.0 0.00 1.40 0.00 75 1013.6
20260506230429 64 359 0.0 0.0 0.00 1.40 0.00 75 1013.6
20260506225929 64 359 0.0 0.0 0.00 1.40 0.00 75 1013.6
20260506225432 64 359 0.0 0.0 0.00 1.40 0.00 75 1013.6
20260506224938 64 359 0.0 0.0 0.00 1.40 0.00 74 1013.5
20260506224432 64 359 0.0 0.0 0.00 1.40 0.00 74 1013.6
20260506223929 64 359 0.0 0.0 0.00 1.40 0.00 75 1013.5
20260506223432 64 359 0.0 0.0 0.00 1.40 0.00 75 1013.5
20260506222929 64 359 0.0 0.0 0.00 1.40 0.00 75 1013.6
20260506222435 64 359 0.0 0.0 0.00 1.40 0.00 75 1013.6
20260506221932 64 359 0.0 0.0 0.00 1.40 0.00 75 1013.6
20260506221429 64 359 0.0 0.0 0.00 1.40 0.00 75 1013.6
20260506220929 64 359 0.0 0.0 0.00 1.40 0.00 75 1013.6
20260506215939 64 359 0.0 0.0 0.00 1.40 0.00 75 1013.6
20260506215445 64 359 0.0 0.0 0.00 1.40 0.00 75 1013.6
20260506214948 64 359 0.0 0.0 0.00 1.40 0.00 75 1013.6
20260506214439 64 359 0.0 0.0 0.00 1.40 0.00 75 1013.6
20260506213939 64 359 0.0 0.0 0.00 1.40 0.00 76 1013.6
20260506213439 64 359 0.0 0.0 0.00 1.40 0.00 76 1013.7
20260506212939 64 359 0.0 0.0 0.00 1.40 0.00 76 1013.7
20260506212442 64 359 0.0 0.0 0.00 1.40 0.00 76 1013.6
20260506211939 64 359 0.0 0.0 0.00 1.40 0.00 76 1013.6
20260506211439 64 359 0.0 0.0 0.00 1.40 0.00 76 1013.6
20260506210948 64 359 0.0 0.0 0.00 1.40 0.00 76 1013.6
20260506210439 64 359 0.0 0.0 0.00 1.40 0.00 76 1013.6
20260506205942 64 359 0.0 0.0 0.00 1.40 0.00 76 1013.6
20260506205439 64 359 0.0 0.0 0.00 1.40 0.00 76 1013.6
20260506204939 64 359 0.0 0.0 0.00 1.40 0.00 76 1013.5
20260506204442 64 359 0.0 0.0 0.00 1.40 0.00 76 1013.5
20260506203939 64 359 0.0 0.0 0.00 1.40 0.00 76 1013.4
20260506203439 64 359 0.0 0.0 0.00 1.40 0.00 76 1013.4
20260506202939 64 359 0.0 0.0 0.00 1.40 0.00 76 1013.4
20260506202442 64 359 0.0 0.0 0.00 1.40 0.00 76 1013.3
20260506201939 64 359 0.0 0.0 0.00 1.40 0.00 76 1013.4
20260506201442 64 359 0.0 0.0 0.00 1.40 0.00 76 1013.4
20260506200939 64 359 0.0 0.0 0.00 1.40 0.00 76 1013.3
20260506200439 64 359 0.0 0.0 0.00 1.40 0.00 76 1013.2
20260506195942 64 359 0.0 0.0 0.00 1.40 0.00 76 1013.0
20260506195442 64 359 0.0 0.0 0.00 1.40 0.00 76 1013.0
20260506194939 64 359 0.0 0.0 0.00 1.40 0.00 76 1012.9
20260506194439 64 359 0.0 0.0 0.00 1.40 0.00 76 1012.8
20260506193939 64 359 0.0 0.0 0.00 1.40 0.00 76 1012.8
20260506193442 64 359 0.0 0.0 0.00 1.40 0.00 76 1012.8
20260506192939 64 359 0.0 0.0 0.00 1.40 0.00 77 1012.7
20260506192439 64 359 0.0 0.0 0.00 1.40 0.00 77 1012.7
20260506191945 64 359 0.0 0.0 0.00 1.40 0.00 77 1012.6
20260506191439 64 359 0.0 0.0 0.00 1.40 0.00 77 1012.6
20260506190945 64 359 0.0 0.0 0.00 1.40 0.00 78 1012.6
20260506190448 64 359 0.0 0.0 0.00 1.40 0.00 78 1012.4
20260506185939 64 359 0.0 0.0 0.00 1.40 0.00 78 1012.3
20260506185439 64 359 0.0 0.0 0.00 1.40 0.00 78 1012.3
20260506184939 64 359 0.0 0.0 0.00 1.40 0.00 78 1012.2
20260506184439 64 359 0.0 0.0 0.00 1.40 0.00 78 1012.2
20260506183939 64 359 0.0 0.0 0.00 1.40 0.00 78 1012.1
20260506183439 64 359 0.0 0.0 0.00 1.40 0.00 78 1012.1
20260506182939 64 359 0.0 0.0 0.00 1.40 0.00 78 1012.0
20260506182439 64 359 0.0 0.0 0.00 1.40 0.00 79 1011.9
20260506181942 64 359 0.0 0.0 0.00 1.40 0.00 79 1011.8
20260506181439 64 359 0.0 0.0 0.00 1.40 0.00 80 1011.8
20260506180942 64 359 0.0 0.0 0.00 1.40 0.00 80 1011.6